Spokane, WA
on Friday, December 28, 2012

Friday
Previous Day Next Day
Daily Summary
 ActualAverageRecord
Temperature
Mean Temperature °F 27°F  
Max Temperature 31°F 32°F 51°F (1897)
Min Temperature 20°F 22°F -15°F (1968)
Degree Days
Heating Degree Days 39 38  
Month to date heating degree days 906 1053  
Since 1 July heating degree days 2291 2720  
Cooling Degree Days 0 0  
Month to date cooling degree days 0 0  
Year to date cooling degree days 535 450  
Moisture
Dew Point 26°F   
Average Humidity 96    
Maximum Humidity 100    
Minimum Humidity 92    
Precipitation
Precipitation T in 0.07 in 0.54 in (1945)
Month to date precipitation 2.56 2.11  
Year to date precipitation 21.30 16.37  
Snow
Snow T in 0.60 in 7.60 in (1992)
Month to date snowfall 17.8 13.1  
Since 1 July snowfall 23.7 20.6  
Snow Depth 4.00 in   
Wind
Wind Speed 2 mph   
Max Wind Speed 7 mph   
Max Gust Speed 8 mph   
Visibility 4 miles   
Events Fog , Snow   

Key: T is trace of precipitation, MM is missing value
Source: NWS Daily Summary
Time(PST)TemperatureDew PointHumidity Pressure Visibility Wind DirectionWind SpeedGust SpeedPrecipitationEvents Conditions
12:53 AM 28.0°F 27.0°F 96% 30.18 in 2.0 miles West 3.5 mph - 0.00 in Snow Light Snow
1:13 AM 28.4°F 28.4°F 100% 30.11 in 1.8 miles West 3.5 mph - 0.00 in Snow Light Snow
1:22 AM 28.4°F 28.4°F 100% 30.11 in 0.5 miles West 4.6 mph - N/A   Overcast
1:53 AM 28.0°F 27.0°F 96% 30.19 in 0.5 miles West 4.6 mph - 0.00 in   Overcast
2:11 AM 28.4°F 26.6°F 93% 30.12 in 0.5 miles WNW 3.5 mph - N/A   Overcast
2:53 AM 28.4°F 26.6°F 93% 30.11 in 7.0 miles Calm Calm - N/A   Overcast
3:53 AM 28.0°F 27.0°F 96% 30.19 in 7.0 miles Calm Calm - N/A   Overcast
4:53 AM 28.0°F 26.1°F 92% 30.19 in 7.0 miles Calm Calm - N/A   Overcast
5:53 AM 28.0°F 27.0°F 96% 30.20 in 7.0 miles Calm Calm - N/A   Overcast
6:41 AM 28.4°F 26.6°F 93% 30.13 in 2.0 miles Calm Calm - N/A   Overcast
6:53 AM 28.0°F 28.0°F 100% 30.21 in 2.0 miles Calm Calm - N/A   Overcast
7:22 AM 28.4°F 26.6°F 93% 30.13 in 6.0 miles SSE 4.6 mph - N/A   Overcast
7:40 AM 28.4°F 26.6°F 93% 30.13 in 2.0 miles SSE 3.5 mph - N/A   Overcast
7:42 AM 26.6°F 26.6°F 100% 30.13 in 0.2 miles Calm Calm - N/A   Overcast
7:53 AM 28.4°F 28.4°F 100% 30.13 in 0.2 miles Calm Calm - N/A Fog Light Freezing Fog
8:26 AM 28.4°F 26.6°F 93% 30.14 in 1.0 miles Calm Calm - N/A   Overcast
8:53 AM 28.0°F 27.0°F 96% 30.22 in 2.0 miles Calm Calm - N/A   Overcast
9:53 AM 28.0°F 27.0°F 96% 30.22 in 2.0 miles SSE 3.5 mph - N/A   Overcast
10:53 AM 28.9°F 28.0°F 96% 30.22 in 2.0 miles South 4.6 mph - N/A   Overcast
11:53 AM 30.0°F 28.0°F 92% 30.21 in 2.0 miles South 4.6 mph - N/A   Overcast
12:03 PM 30.2°F 28.4°F 93% 30.14 in 8.0 miles Calm Calm - N/A   Overcast
12:53 PM 30.9°F 28.0°F 89% 30.21 in 7.0 miles Calm Calm - N/A   Overcast
1:53 PM 30.9°F 28.0°F 89% 30.21 in 10.0 miles Calm Calm - N/A   Overcast
2:53 PM 30.0°F 28.0°F 92% 30.22 in 10.0 miles NE 5.8 mph - N/A   Overcast
3:27 PM 30.2°F 28.4°F 93% 30.15 in 10.0 miles NE 4.6 mph - N/A   Overcast
3:53 PM 30.0°F 28.0°F 92% 30.22 in 9.0 miles NE 4.6 mph - N/A   Overcast
4:53 PM 28.0°F 27.0°F 96% 30.22 in 8.0 miles Calm Calm - N/A   Mostly Cloudy
5:41 PM 26.6°F 24.8°F 93% 30.14 in 4.0 miles North 4.6 mph - N/A   Mostly Cloudy
5:53 PM 26.1°F 26.1°F 100% 30.22 in 5.0 miles North 4.6 mph - N/A   Mostly Cloudy
6:53 PM 27.0°F 26.1°F 96% 30.22 in 6.0 miles NE 3.5 mph - N/A   Overcast
7:53 PM 27.0°F 26.1°F 96% 30.23 in 5.0 miles Calm Calm - N/A   Overcast
8:49 PM 26.6°F 24.8°F 93% 30.15 in 2.5 miles Calm Calm - N/A   Overcast
8:53 PM 26.6°F 24.8°F 93% 30.15 in 2.5 miles Calm Calm - N/A   Overcast
9:42 PM 21.2°F 21.2°F 100% 30.15 in 1.5 miles Calm Calm - N/A   Overcast
9:53 PM 21.9°F 21.0°F 96% 30.24 in 1.0 miles Calm Calm - N/A   Overcast
10:44 PM 21.2°F 21.2°F 100% 30.15 in 0.8 miles Calm Calm - N/A   Overcast
10:53 PM 21.9°F 21.0°F 96% 30.23 in 0.8 miles Calm Calm - N/A   Overcast
11:53 PM 21.0°F 19.9°F 96% 30.23 in 0.8 miles Calm Calm - N/A   Overcast
Moon Phase
Dec. 28 Jan. 04 Jan. 11 Jan. 18 Jan. 26
Sunrise:07:38 AM (PST) Moon Rise:04:51 PM (PST)12/28
Sunset:04:06 PM (PST) Moon Set:07:31 AM (PST)12/28

Copyright © 2014 The Weather Underground, Inc.